Location: Julian California
(33.0790°N, 116.6010°W)
Time: 07:10:25
(UTC-07:00)

Cosmos 1655 Rocket - Pass Details

Date: 14 June 2018
Orbit: 971 x 1005 km, 83.0° (Epoch: 22 September)

Event Time Altitude Azimuth Distance (km) Brightness Sun altitude
Rises 21:41:19 0° 349° (N) 3,698 8.0 -18.4°
Reaches altitude 10° 21:43:52 10° 346° (NNW) 2,741 7.2 -18.7°
Maximum altitude 21:50:01 60° 268° (W) 1,107 4.4 -19.6°
Enters shadow 21:54:58 16° 192° (SSW) 2,298 5.6 -20.3°
